Tracking 19176 objects as of 25-May-2018
HD Live streaming from Space Station
objects crossing your sky now

NOAA 16 DEB

Track NOAA 16 DEB now!
10-day predictions


NORAD ID: 42400
Int'l Code: 2000-055SU
Perigee: 844.0 km
Apogee: 883.9 km
Inclination: 98.8 °
Period: 102.1 minutes
Semi major axis: 7234 km
RCS: Unknown
Launch date: September 21, 2000
Source: United States (US)
Launch site: AIR FORCE WESTERN TEST RANGE (AFWTR)

Note: This is SATELLITE DEBRIS
aabbcc
Your satellite tracking list
Your tracking list is empty




NASA's NSSDC Master Catalog

Two Line Element Set (TLE):
1 42400U 00055SU  18144.01890572  .00000505  00000-0  30558-3 0  9994
2 42400  98.8249 211.8028 0027577 167.5136 192.6724 14.10760710109953
Source of the keplerian elements: AFSPC